Weather History for Altus AFB, OK

Change the Weather History Date:

Sunday, March 17, 2013

  Actual Average Record
Temperature  
Mean Temperature 48 °F -  
Max Temperature 57 °F 62 °F 93 °F (2011)
Min Temperature 38 °F 39 °F 26 °F (2005)
Degree Days  
Heating Degree Days 18    
Moisture  
Dew Point 37 °F    
Average Humidity 68    
Maximum Humidity 81    
Minimum Humidity 55    
Precipitation  
Precipitation 0.00 in - - ()
Sea Level Pressure  
Sea Level Pressure 29.79 in    
Wind  
Wind Speed 16 mph (NNE)    
Max Wind Speed 29 mph    
Max Gust Speed 40 mph    
Visibility 10 miles    
Events      
Averages and records for this station are not official NWS values.
T = Trace of Precipitation, MM = Missing Value Source: NWS Daily Summary

Daily Weather History Graph

Daily Weather History Graph

Search for Another Location

Airport:

Trip Planner

Search our weather history database for the weather conditions in past years. The results will help you decide how hot, cold, wet, or windy it might be!

Date:

Astronomy

Mar. 17, 2013 Rise Set
Actual Time 7:44 AM CDT 7:46 PM CDT
Civil Twilight 7:19 AM CDT 8:11 PM CDT
Nautical Twilight 6:50 AM CDT 8:41 PM CDT
Astronomical Twilight 6:20 AM CDT 9:10 PM CDT
Moon 11:11 AM CDT (3/17) 12:43 AM CDT (3/17)
Length of Visible Light 12h 52m
Length of Day
12h 02m
Waxing Crescent, 31% of the Moon is Illuminated
Mar 17
Waxing Crescent
Mar 19
First Quarter
Mar 27
Full
Apr 2
Last Quarter
Apr 10
New

Hourly Weather History & Observations

Time (CDT) Temp. Windchill Dew Point Humidity Pressure Visibility Wind Dir Wind Speed Gust Speed Precip Events Conditions
12:58 AM 47.3 °F - 36.0 °F 65% 29.80 in 10.0 mi North 26.5 mph 40.3 mph N/A   Mostly Cloudy
1:58 AM 46.4 °F 37.9 °F 35.4 °F 66% 29.80 in 10.0 mi North 25.3 mph 29.9 mph N/A   Mostly Cloudy
2:58 AM 44.6 °F 34.9 °F 34.3 °F 67% 29.81 in 10.0 mi North 28.8 mph 35.7 mph N/A   Mostly Cloudy
3:58 AM 43.2 °F 34.5 °F 33.8 °F 70% 29.83 in 10.0 mi North 20.7 mph 28.8 mph N/A   Clear
4:58 AM 41.9 °F 33.4 °F 33.6 °F 72% 29.81 in 10.0 mi North 18.4 mph 25.3 mph N/A   Partly Cloudy
5:28 AM 41.0 °F 32.2 °F 32.0 °F 70% 29.83 in 10.0 mi North 18.4 mph 26.5 mph N/A   Mostly Cloudy
5:58 AM 41.9 °F 33.1 °F 33.3 °F 71% 29.84 in 10.0 mi North 19.6 mph 28.8 mph N/A   Mostly Cloudy
6:03 AM 41.0 °F 31.6 °F 32.0 °F 70% 29.85 in 10.0 mi North 20.7 mph 28.8 mph N/A   Scattered Clouds
6:58 AM 39.9 °F 32.5 °F 32.7 °F 75% 29.85 in 10.0 mi North 12.7 mph 24.2 mph N/A   Partly Cloudy
7:58 AM 38.3 °F 29.7 °F 32.2 °F 79% 29.85 in 10.0 mi North 15.0 mph 21.9 mph N/A   Partly Cloudy
8:58 AM 39.2 °F 32.5 °F 32.7 °F 78% 29.87 in 10.0 mi North 10.4 mph - N/A   Partly Cloudy
9:58 AM 41.7 °F 34.8 °F 33.1 °F 71% 29.87 in 10.0 mi North 12.7 mph - N/A   Partly Cloudy
10:23 AM 42.8 °F 36.2 °F 32.0 °F 66% 29.88 in 10.0 mi North 12.7 mph - N/A   Mostly Cloudy
10:53 AM 42.8 °F 36.2 °F 33.8 °F 70% 29.89 in 10.0 mi North 12.7 mph - N/A   Overcast
10:58 AM 42.3 °F 36.3 °F 34.0 °F 72% 29.88 in 10.0 mi North 10.4 mph - N/A   Overcast
11:48 AM 46.4 °F 40.7 °F 35.6 °F 66% 29.88 in 10.0 mi NNW 12.7 mph - N/A   Overcast
11:58 AM 45.3 °F 39.7 °F 34.7 °F 66% 29.88 in 10.0 mi NNW 11.5 mph - N/A   Overcast
12:58 PM 47.5 °F - 36.3 °F 65% 29.85 in 10.0 mi North 6.9 mph - N/A   Overcast
1:08 PM 48.2 °F - 37.4 °F 66% 29.84 in 10.0 mi Variable 4.6 mph - N/A   Scattered Clouds
1:58 PM 50.9 °F - 38.5 °F 62% 29.80 in 10.0 mi Variable 2.3 mph - N/A   Clear
2:58 PM 53.6 °F - 39.6 °F 59% 29.76 in 10.0 mi WNW 6.9 mph - N/A   Clear
3:58 PM 54.9 °F - 40.3 °F 58% 29.73 in 10.0 mi Variable 2.3 mph - N/A   Clear
4:56 PM 57.2 °F - 41.0 °F 55% 29.70 in 10.0 mi Variable 1.2 mph - N/A   Clear
5:58 PM 56.7 °F - 41.7 °F 57% 29.68 in 10.0 mi Variable 2.3 mph - N/A   Clear
6:58 PM 57.0 °F - 41.9 °F 57% 29.68 in 10.0 mi ESE 5.8 mph - N/A   Clear
7:58 PM 52.2 °F - 42.3 °F 69% 29.69 in 10.0 mi ESE 8.1 mph - N/A   Mostly Cloudy
8:58 PM 50.9 °F - 42.8 °F 74% 29.68 in 10.0 mi East 9.2 mph - N/A   Partly Cloudy
9:58 PM 52.3 °F - 41.4 °F 66% 29.65 in 10.0 mi ESE 8.1 mph - N/A   Clear
10:58 PM 48.6 °F - 40.8 °F 75% 29.65 in 10.0 mi SE 6.9 mph - N/A   Clear
11:58 PM 46.4 °F 45.2 °F 41.0 °F 81% 29.65 in 10.0 mi ESE 3.5 mph - N/A   Clear